Location: Burland Observatory
(39.4088°N, 105.4217°W)
Time: 23:55:02
(UTC-07:00)

Vanguard 3 - Pass Details

Date: 16 December 2019
Orbit: 507 x 3264 km, 33.4° (Epoch: 27 January)

Event Time Altitude Azimuth Distance (km) Brightness Sun altitude
Rises 13:16:24 0° 271° (W) 5,375 11.6 24.6°
Reaches altitude 10° 13:20:42 10° 258° (WSW) 4,801 11.6 24.3°
Maximum altitude 13:30:36 22° 214° (SW) 4,615 13.4 23.6°
Drops below altitude 10° 13:43:06 10° 173° (S) 6,116 12.7 22.6°
Sets 13:49:52 0° 160° (SSE) 7,217 12.6 22.0°
